Simultaneous Nadir Overpasses (SNOs) Predictions

Prediction of SNOs between METOP-A and NOAA-19 Satellite Orbit:

Table of predicted SNOs for the next 14.0 days since TLE Epoch: 3/1/2019
Index Date (METOP-A) Time (METOP-A) Lat,Lon (METOP-A) SZA (METOP-A ) Date (NOAA-19) Time (NOAA-19) Lat,Lon (NOAA-19) SZA (NOAA-19 ) Distance(km) Time Diff (sec)
1 03/09/2019 20:40:20 -79.44, 61.25 96.14 03/09/2019 20:39:12 -79.43, 61.12 96.17 3.00 68
2 03/09/2019 21:31:01 79.42,-131.57 83.83 03/09/2019 21:30:09 79.42,-131.49 83.82 1.77 52
3 03/09/2019 22:21:42 -79.42, 35.75 96.20 03/09/2019 22:21:13 -79.43, 35.60 96.19 3.31 29
4 03/09/2019 23:12:23 79.40,-157.08 83.77 03/09/2019 23:12:10 79.42,-157.01 83.79 2.39 13
5 03/10/2019 00:03:04 -79.40, 10.24 96.25 03/10/2019 00:03:13 -79.41, 10.35 96.24 2.29 9
6 03/10/2019 00:53:44 79.41, 177.68 83.76 03/10/2019 00:54:10 79.39, 177.75 83.74 2.84 26
7 03/10/2019 01:44:25 -79.41, -15.00 96.26 03/10/2019 01:45:14 -79.41, -15.17 96.26 3.63 49
8 03/10/2019 02:35:06 79.39, 152.18 83.71 03/10/2019 02:36:11 79.39, 152.23 83.72 0.99 65




NCC Satellite Simultaneous Nadir Overpasses (SNOs) Prediction Service
